User: anonymous   Login
Location: Antichan
(42.9728°N, 0.6667°E)
Time: 06:40:57
(UTC+00:00)
Language:

MOS 1-B Rocket - Orbit

View from above orbital plane
View from above orbital plane
View from above satellite
View from above satellite

Ground track
Ground track

The orbit data is extracted from the following two-line orbital elements,

1 20491U 90013D   20295.21666110 -.00000143 +00000-0 -19972-3 0  9991
2 20491 099.0479 173.1199 0468119 323.3845 033.6098 13.03559829459961
Epoch (UTC): 21 October 2020 05:11:59
Eccentricity: 0.0468119
inclination: 99.0479°
perigee height: 891 km
apogee height: 1605 km
right ascension of ascending node: 173.1199°
argument of perigee: 323.3845°
revolutions per day: 13.03559829
mean anomaly at epoch: 33.6098°
orbit number at epoch: 45996

The dashed part of the orbit path shows where the satellite is in the earth's shadow,  

DLR